• In Belarus
  • List of Countries
  • For 7 days
  • Water Temperature
  • Satellite Maps
  • Weather Map
  • Weather Widgets
  • user-avatar
    Login

    Hourly Weather Polyanica

    Today, 26 September, Wednesday

    Time Temperature Precipitation Wind Pressure Humidity
    00:00 +3°C° 0 mm 2 mps 727 mmHg 79%
    01:00 +2°C° 0 mm 2 mps 727 mmHg 80%
    02:00 +1°C° 0 mm 2 mps 727 mmHg 82%
    03:00 +1°C° 0 mm 2 mps 727 mmHg 84%
    04:00 +1°C° 0 mm 2 mps 728 mmHg 86%
    05:00 -1°C° 0 mm 2 mps 728 mmHg 87%
    06:00 +1°C° 0 mm 2 mps 728 mmHg 84%
    07:00 +2°C° 0 mm 2 mps 728 mmHg 80%
    08:00 +3°C° 0 mm 2 mps 729 mmHg 76%
    09:00 +5°C° 0 mm 2 mps 729 mmHg 68%
    10:00 +7°C° 0 mm 2 mps 729 mmHg 59%
    11:00 +9°C° 0 mm 2 mps 729 mmHg 50%
    12:00 +10°C° 0 mm 2 mps 729 mmHg 47%
    13:00 +10°C° 0 mm 2 mps 729 mmHg 43%
    14:00 +12°C° 0 mm 2 mps 728 mmHg 40%
    15:00 +12°C° 0 mm 1 mps 728 mmHg 44%
    16:00 +11°C° 0 mm 1 mps 727 mmHg 48%
    17:00 +11°C° 0 mm 1 mps 727 mmHg 53%
    18:00 +9°C° 0 mm 1 mps 726 mmHg 56%
    19:00 +8°C° 0 mm 1 mps 726 mmHg 59%
    20:00 +6°C° 0 mm 1 mps 726 mmHg 62%
    21:00 +5°C° 0 mm 2 mps 726 mmHg 61%
    22:00 +6°C° 0 mm 2 mps 726 mmHg 59%
    23:00 +6°C° 0 mm 2 mps 726 mmHg 58%

    Tomorrow, 27 September, Thursday

    Time Temperature Precipitation Wind Pressure Humidity
    00:00 +6°C° 0 mm 2 mps 726 mmHg 58%
    01:00 +5°C° 0 mm 3 mps 725 mmHg 59%
    02:00 +5°C° 0 mm 3 mps 725 mmHg 59%
    03:00 +5°C° 0 mm 3 mps 725 mmHg 58%
    04:00 +5°C° 0 mm 3 mps 724 mmHg 56%
    05:00 +5°C° 0 mm 4 mps 724 mmHg 55%
    06:00 +6°C° 0 mm 4 mps 724 mmHg 55%
    07:00 +6°C° 0 mm 4 mps 724 mmHg 54%
    08:00 +6°C° 0 mm 4 mps 724 mmHg 54%
    09:00 +7°C° 0 mm 4 mps 724 mmHg 54%
    10:00 +8°C° 0 mm 4 mps 724 mmHg 53%
    11:00 +10°C° 0 mm 4 mps 724 mmHg 53%
    12:00 +10°C° 0 mm 4 mps 724 mmHg 55%
    13:00 +10°C° 0 mm 4 mps 723 mmHg 57%
    14:00 +10°C° 0 mm 4 mps 723 mmHg 59%
    15:00 +10°C° 0 mm 3 mps 723 mmHg 60%
    16:00 +10°C° 0 mm 3 mps 722 mmHg 61%
    17:00 +11°C° 0 mm 3 mps 722 mmHg 62%
    18:00 +9°C° 0 mm 3 mps 722 mmHg 65%
    19:00 +8°C° 0 mm 2 mps 722 mmHg 68%
    20:00 +6°C° 0 mm 2 mps 722 mmHg 72%
    21:00 +6°C° 0 mm 2 mps 722 mmHg 72%
    22:00 +6°C° 0 mm 2 mps 722 mmHg 72%
    23:00 +7°C° 0 mm 2 mps 721 mmHg 72%

    Day after tomorrow, 28 September, Friday

    Time Temperature Precipitation Wind Pressure Humidity
    00:00 +7°C° 0 mm 2 mps 721 mmHg 73%
    01:00 +7°C° 0 mm 2 mps 721 mmHg 73%
    02:00 +7°C° 0 mm 2 mps 720 mmHg 74%
    03:00 +7°C° 0 mm 2 mps 720 mmHg 74%
    04:00 +7°C° 0 mm 2 mps 719 mmHg 74%
    05:00 +7°C° 0 mm 2 mps 718 mmHg 74%
    06:00 +8°C° 0 mm 2 mps 718 mmHg 71%
    07:00 +9°C° 0 mm 2 mps 718 mmHg 68%
    08:00 +10°C° 0 mm 2 mps 718 mmHg 65%
    09:00 +12°C° 0 mm 3 mps 718 mmHg 60%
    10:00 +14°C° 0 mm 3 mps 718 mmHg 54%
    11:00 +17°C° 0 mm 3 mps 718 mmHg 49%
    12:00 +18°C° 0 mm 3 mps 718 mmHg 48%
    13:00 +18°C° 0 mm 3 mps 717 mmHg 48%
    14:00 +19°C° 0 mm 3 mps 717 mmHg 47%
    15:00 +18°C° 0 mm 3 mps 716 mmHg 52%
    16:00 +17°C° 0 mm 2 mps 716 mmHg 57%
    17:00 +17°C° 0 mm 2 mps 715 mmHg 61%
    18:00 +15°C° 0 mm 1 mps 715 mmHg 65%
    19:00 +13°C° 0 mm 1 mps 715 mmHg 69%
    20:00 +11°C° 0 mm 1 mps 715 mmHg 72%
    21:00 +11°C° 0 mm 1 mps 716 mmHg 71%
    22:00 +11°C° 0 mm 1 mps 716 mmHg 70%
    23:00 +11°C° 0 mm 1 mps 716 mmHg 69%

    29 September, Saturday

    Time Temperature Precipitation Wind Pressure Humidity
    00:00 +11°C° 0 mm 1 mps 716 mmHg 72%
    01:00 +11°C° 0 mm 1 mps 716 mmHg 76%
    02:00 +10°C° 0 mm 1 mps 716 mmHg 79%
    03:00 +10°C° 0 mm 1 mps 716 mmHg 83%
    04:00 +10°C° 0 mm 1 mps 715 mmHg 87%
    05:00 +9°C° 0 mm 1 mps 715 mmHg 91%
    06:00 +10°C° 0.2 mm 1 mps 716 mmHg 91%
    07:00 +10°C° 0.2 mm 1 mps 716 mmHg 91%
    08:00 +9°C° 0.2 mm 2 mps 716 mmHg 91%
    09:00 +9°C° 0.6 mm 2 mps 716 mmHg 90%
    10:00 +10°C° 0.6 mm 2 mps 716 mmHg 90%
    11:00 +10°C° 0.6 mm 3 mps 717 mmHg 89%
    12:00 +9°C° 0.5 mm 3 mps 717 mmHg 88%
    13:00 +9°C° 0.5 mm 3 mps 717 mmHg 88%
    14:00 +9°C° 0.5 mm 3 mps 717 mmHg 87%
    15:00 +9°C° 0.2 mm 3 mps 717 mmHg 87%
    16:00 +9°C° 0.2 mm 3 mps 717 mmHg 86%
    17:00 +8°C° 0.2 mm 2 mps 718 mmHg 86%
    18:00 +8°C° 0.1 mm 2 mps 718 mmHg 87%
    19:00 +8°C° 0.1 mm 2 mps 719 mmHg 88%
    20:00 +7°C° 0.1 mm 2 mps 719 mmHg 88%
    21:00 +7°C° 0 mm 2 mps 719 mmHg 89%
    22:00 +6°C° 0 mm 2 mps 719 mmHg 90%
    23:00 +6°C° 0 mm 2 mps 719 mmHg 91%

    30 September, Sunday

    Time Temperature Precipitation Wind Pressure Humidity
    00:00 +6°C° 0 mm 2 mps 720 mmHg 92%
    01:00 +5°C° 0 mm 2 mps 720 mmHg 92%
    02:00 +5°C° 0 mm 2 mps 720 mmHg 93%
    03:00 +5°C° 0 mm 2 mps 720 mmHg 93%
    04:00 +5°C° 0 mm 2 mps 720 mmHg 93%
    05:00 +5°C° 0 mm 2 mps 720 mmHg 93%
    06:00 +6°C° 0 mm 2 mps 720 mmHg 92%
    07:00 +6°C° 0 mm 2 mps 720 mmHg 91%
    08:00 +6°C° 0 mm 2 mps 721 mmHg 90%
    09:00 +7°C° 0 mm 2 mps 721 mmHg 86%
    10:00 +9°C° 0 mm 2 mps 721 mmHg 83%
    11:00 +10°C° 0 mm 2 mps 721 mmHg 79%
    12:00 +12°C° 0 mm 2 mps 720 mmHg 76%
    13:00 +13°C° 0 mm 2 mps 720 mmHg 73%
    14:00 +13°C° 0 mm 2 mps 720 mmHg 71%
    15:00 +13°C° 0 mm 2 mps 720 mmHg 73%
    16:00 +13°C° 0 mm 2 mps 719 mmHg 75%
    17:00 +13°C° 0 mm 2 mps 719 mmHg 77%
    18:00 +10°C° 0 mm 2 mps 719 mmHg 82%
    19:00 +9°C° 0 mm 2 mps 719 mmHg 87%
    20:00 +7°C° 0 mm 2 mps 719 mmHg 92%
    21:00 +8°C° 0 mm 1 mps 718 mmHg 92%
    22:00 +8°C° 0 mm 1 mps 718 mmHg 92%
    23:00 +8°C° 0 mm 1 mps 718 mmHg 92%

    1 October, Monday

    Time Temperature Precipitation Wind Pressure Humidity
    00:00 +8°C° 0 mm 1 mps 718 mmHg 92%
    01:00 +8°C° 0 mm 1 mps 717 mmHg 91%
    02:00 +8°C° 0 mm 1 mps 717 mmHg 91%
    03:00 +8°C° 0 mm 1 mps 717 mmHg 91%
    04:00 +8°C° 0 mm 1 mps 716 mmHg 91%
    05:00 +8°C° 0 mm 1 mps 716 mmHg 91%
    06:00 +9°C° 0 mm 1 mps 716 mmHg 88%
    07:00 +10°C° 0 mm 1 mps 716 mmHg 84%
    08:00 +11°C° 0 mm 1 mps 716 mmHg 81%
    09:00 +13°C° 0 mm 2 mps 716 mmHg 73%
    10:00 +15°C° 0 mm 2 mps 716 mmHg 65%
    11:00 +18°C° 0 mm 2 mps 716 mmHg 58%
    12:00 +18°C° 0 mm 2 mps 715 mmHg 56%
    13:00 +19°C° 0 mm 2 mps 714 mmHg 54%
    14:00 +20°C° 0 mm 2 mps 714 mmHg 52%
    15:00 +19°C° 0 mm 2 mps 713 mmHg 57%
    16:00 +18°C° 0 mm 2 mps 713 mmHg 62%
    17:00 +17°C° 0 mm 2 mps 712 mmHg 67%
    18:00 +15°C° 0 mm 2 mps 712 mmHg 73%
    19:00 +13°C° 0 mm 2 mps 712 mmHg 78%
    20:00 +12°C° 0 mm 2 mps 711 mmHg 83%
    21:00 +10°C° 0 mm 2 mps 711 mmHg 83%
    22:00 +11°C° 0 mm 1 mps 711 mmHg 83%
    23:00 +11°C° 0 mm 1 mps 711 mmHg 83%
    Show more